TimeEDT,TemperatureF,Dew PointF,Humidity,Sea Level PressureIn,VisibilityMPH,Wind Direction,Wind SpeedMPH,Gust SpeedMPH,PrecipitationIn,Events,Conditions,WindDirDegrees,DateUTC
12:56 AM,55.0,52.7,92,30.19,12.0,North,3.5,-,N/A,,Clear,10,2013-09-29 04:56:00
1:56 AM,55.0,53.1,93,30.19,12.0,NNE,4.6,-,N/A,,Clear,20,2013-09-29 05:56:00
2:56 AM,54.9,53.6,96,30.17,12.0,North,5.8,-,N/A,,Clear,10,2013-09-29 06:56:00
3:56 AM,53.8,52.2,94,30.17,12.0,North,4.6,-,N/A,,Clear,350,2013-09-29 07:56:00
4:56 AM,52.7,51.6,96,30.17,12.0,NNW,4.6,-,N/A,,Clear,330,2013-09-29 08:56:00
5:56 AM,51.8,50.9,97,30.17,12.0,NNW,3.5,-,N/A,,Clear,340,2013-09-29 09:56:00
6:56 AM,50.9,50.2,97,30.19,12.0,NNW,2.3,-,N/A,,Clear,330,2013-09-29 10:56:00
7:56 AM,53.4,52.7,97,30.19,12.0,NNW,5.8,-,N/A,,Mostly Cloudy,340,2013-09-29 11:56:00
8:56 AM,59.0,56.3,91,30.18,12.0,NNW,5.8,-,N/A,,Clear,340,2013-09-29 12:56:00
9:56 AM,64.9,55.9,73,30.17,12.0,North,8.1,-,N/A,,Clear,360,2013-09-29 13:56:00
10:43 AM,68.0,55.4,64,30.16,2.8,NNW,9.2,-,N/A,,Partly Cloudy,330,2013-09-29 14:43:00
10:48 AM,68.0,53.6,60,30.16,3.0,NNE,8.1,-,N/A,,Haze,20,2013-09-29 14:48:00
10:56 AM,68.9,52.5,56,30.17,4.0,NNW,10.4,-,N/A,,Haze,340,2013-09-29 14:56:00
11:56 AM,68.9,48.7,49,30.16,12.0,Variable,6.9,17.3,N/A,,Mostly Cloudy,0,2013-09-29 15:56:00
12:56 PM,71.1,51.8,50,30.14,12.0,North,10.4,17.3,N/A,,Mostly Cloudy,360,2013-09-29 16:56:00
1:56 PM,72.3,49.8,45,30.11,12.0,North,8.1,-,N/A,,Scattered Clouds,360,2013-09-29 17:56:00
2:56 PM,72.1,47.7,42,30.09,12.0,NE,6.9,-,N/A,,Scattered Clouds,50,2013-09-29 18:56:00
3:56 PM,73.2,49.6,43,30.06,12.0,NNE,11.5,16.1,N/A,,Partly Cloudy,20,2013-09-29 19:56:00
4:56 PM,73.6,49.1,42,30.06,12.0,North,11.5,15.0,N/A,,Partly Cloudy,10,2013-09-29 20:56:00
5:56 PM,68.2,50.5,53,30.07,12.0,NE,3.5,-,N/A,,Partly Cloudy,40,2013-09-29 21:56:00
6:56 PM,65.3,53.8,66,30.08,12.0,NW,4.6,-,N/A,,Clear,320,2013-09-29 22:56:00
7:56 PM,59.4,54.7,84,30.08,12.0,NNW,3.5,-,N/A,,Partly Cloudy,330,2013-09-29 23:56:00
8:56 PM,57.2,54.5,91,30.09,12.0,NNW,2.3,-,N/A,,Clear,340,2013-09-30 00:56:00
9:56 PM,54.5,51.8,91,30.08,12.0,NNW,1.2,-,N/A,,Clear,340,2013-09-30 01:56:00
10:56 PM,52.7,50.9,94,30.08,12.0,NNW,1.2,-,N/A,,Clear,330,2013-09-30 02:56:00
11:56 PM,51.3,49.1,92,30.07,12.0,NW,3.5,-,N/A,,Clear,320,2013-09-30 03:56:00